Time,TemperatureF,DewpointF,PressureIn,WindDirection,WindDirectionDegrees,WindSpeedMPH,WindSpeedGustMPH,Humidity,HourlyPrecipIn,Conditions,Clouds,dailyrainin,SoftwareType,DateUTC
2013-05-09 00:03:00,63.0,53.0,30.04,WSW,237,0.0,0.0,70,0.00,,,0.02,,2013-05-09 04:03:00,
2013-05-09 00:12:00,63.0,54.0,30.04,WSW,237,0.0,0.0,72,0.00,,,0.02,,2013-05-09 04:12:00,
2013-05-09 00:23:00,63.0,54.0,30.04,WSW,237,0.0,0.0,72,0.00,,,0.02,,2013-05-09 04:23:00,
2013-05-09 00:33:00,63.0,54.0,30.05,WSW,237,0.0,0.0,73,0.00,,,0.02,,2013-05-09 04:33:00,
2013-05-09 00:43:00,63.0,54.0,30.05,WSW,237,0.0,0.0,73,0.00,,,0.02,,2013-05-09 04:43:00,
2013-05-09 00:52:00,63.0,55.0,30.05,WSW,237,0.0,0.0,75,0.00,,,0.02,,2013-05-09 04:52:00,
2013-05-09 01:02:00,62.0,54.0,30.04,WNW,296,0.0,0.0,76,0.00,,,0.01,,2013-05-09 05:02:00,
2013-05-09 01:12:00,63.0,56.0,30.04,West,275,0.0,0.0,78,0.00,,,0.01,,2013-05-09 05:12:00,
2013-05-09 01:22:00,63.0,56.0,30.04,West,275,0.0,0.0,78,0.00,,,0.01,,2013-05-09 05:22:00,
2013-05-09 01:32:00,62.0,55.0,30.03,SSW,206,0.0,0.0,79,0.00,,,0.01,,2013-05-09 05:32:00,
2013-05-09 01:42:00,62.0,56.0,30.03,West,260,0.0,0.0,80,0.00,,,0.01,,2013-05-09 05:42:00,
2013-05-09 01:51:00,62.0,56.0,30.03,West,260,0.0,0.0,80,0.00,,,0.01,,2013-05-09 05:51:00,
2013-05-09 02:02:00,61.0,55.0,30.02,West,260,0.0,0.0,82,0.00,,,0.01,,2013-05-09 06:02:00,
2013-05-09 02:12:00,61.0,56.0,30.01,West,260,0.0,0.0,84,0.00,,,0.01,,2013-05-09 06:12:00,
2013-05-09 02:21:00,61.0,56.0,30.01,West,260,0.0,0.0,84,0.00,,,0.01,,2013-05-09 06:21:00,
2013-05-09 02:32:00,61.0,56.0,30.01,West,260,0.0,0.0,85,0.00,,,0.01,,2013-05-09 06:32:00,
2013-05-09 02:42:00,61.0,57.0,30.01,West,260,0.0,0.0,87,0.00,,,0.01,,2013-05-09 06:42:00,
2013-05-09 02:52:00,61.0,57.0,30.01,West,260,0.0,0.0,87,0.00,,,0.01,,2013-05-09 06:52:00,
2013-05-09 03:01:00,60.0,56.0,30.01,West,260,0.0,0.0,87,0.00,,,0.01,,2013-05-09 07:01:00,
2013-05-09 03:12:00,60.0,56.0,30.01,West,260,0.0,0.0,87,0.00,,,0.01,,2013-05-09 07:12:00,
2013-05-09 03:21:00,60.0,56.0,30.01,West,260,0.0,0.0,87,0.00,,,0.01,,2013-05-09 07:21:00,
2013-05-09 03:32:00,59.0,55.0,30.01,West,260,0.0,0.0,88,0.00,,,0.01,,2013-05-09 07:32:00,
2013-05-09 03:42:00,59.0,55.0,30.01,West,260,0.0,0.0,88,0.00,,,0.01,,2013-05-09 07:42:00,
2013-05-09 03:52:00,59.0,55.0,30.01,West,260,0.0,0.0,88,0.00,,,0.01,,2013-05-09 07:52:00,
2013-05-09 04:02:00,58.0,55.0,30.01,West,260,0.0,0.0,90,0.00,,,0.01,,2013-05-09 08:02:00,
2013-05-09 04:11:00,59.0,56.0,30.00,West,260,0.0,0.0,90,0.00,,,0.01,,2013-05-09 08:11:00,
2013-05-09 04:21:00,59.0,56.0,30.00,West,260,0.0,0.0,90,0.00,,,0.01,,2013-05-09 08:21:00,
2013-05-09 04:32:00,58.0,56.0,30.01,West,260,0.0,0.0,92,0.00,,,0.01,,2013-05-09 08:32:00,
2013-05-09 04:42:00,58.0,56.0,30.01,West,260,0.0,0.0,92,0.00,,,0.01,,2013-05-09 08:42:00,
2013-05-09 04:51:00,58.0,56.0,30.01,West,260,0.0,0.0,92,0.00,,,0.01,,2013-05-09 08:51:00,
2013-05-09 05:02:00,58.0,56.0,30.02,West,260,0.0,0.0,93,0.00,,,0.01,,2013-05-09 09:02:00,
2013-05-09 05:11:00,58.0,56.0,30.01,West,260,0.0,0.0,93,0.00,,,0.01,,2013-05-09 09:11:00,
2013-05-09 05:21:00,58.0,56.0,30.01,West,260,0.0,0.0,93,0.00,,,0.01,,2013-05-09 09:21:00,
2013-05-09 05:32:00,59.0,57.0,30.02,West,260,0.0,0.0,93,0.00,,,0.01,,2013-05-09 09:32:00,
2013-05-09 05:43:00,58.0,56.0,30.02,NW,308,0.0,0.0,93,0.00,,,0.01,,2013-05-09 09:43:00,
2013-05-09 05:52:00,58.0,56.0,30.02,NW,308,0.0,0.0,93,0.00,,,0.01,,2013-05-09 09:52:00,
2013-05-09 06:02:00,58.0,56.0,30.01,NW,308,0.0,0.0,93,0.00,,,0.01,,2013-05-09 10:02:00,
2013-05-09 06:12:00,58.0,56.0,30.01,NW,308,0.0,0.0,93,0.00,,,0.01,,2013-05-09 10:12:00,
2013-05-09 06:22:00,58.0,56.0,30.01,NW,308,0.0,0.0,93,0.00,,,0.01,,2013-05-09 10:22:00,
2013-05-09 06:33:00,58.0,57.0,30.02,NW,308,0.0,0.0,95,0.00,,,0.01,,2013-05-09 10:33:00,
2013-05-09 06:42:00,58.0,57.0,30.02,NW,308,0.0,0.0,95,0.00,,,0.01,,2013-05-09 10:42:00,
2013-05-09 06:52:00,58.0,57.0,30.02,NW,308,0.0,0.0,95,0.00,,,0.01,,2013-05-09 10:52:00,
2013-05-09 07:02:00,57.0,56.0,30.03,NW,308,0.0,0.0,95,0.00,,,0.01,,2013-05-09 11:02:00,
2013-05-09 07:12:00,57.0,56.0,30.04,NW,308,0.0,0.0,95,0.00,,,0.01,,2013-05-09 11:12:00,
2013-05-09 07:22:00,57.0,56.0,30.04,NW,308,0.0,0.0,95,0.00,,,0.01,,2013-05-09 11:22:00,
2013-05-09 07:32:00,58.0,57.0,30.04,NW,308,0.0,0.0,95,0.00,,,0.01,,2013-05-09 11:32:00,
2013-05-09 07:41:00,57.0,56.0,30.04,NW,308,0.0,0.0,95,0.00,,,0.01,,2013-05-09 11:41:00,
2013-05-09 07:51:00,57.0,56.0,30.04,NW,308,0.0,0.0,95,0.00,,,0.01,,2013-05-09 11:51:00,
2013-05-09 08:01:00,57.0,56.0,30.04,NW,308,0.0,0.0,95,0.00,,,0.01,,2013-05-09 12:01:00,
2013-05-09 08:11:00,58.0,57.0,30.04,SW,234,0.0,0.0,95,0.00,,,0.01,,2013-05-09 12:11:00,
2013-05-09 08:22:00,58.0,57.0,30.04,SW,234,0.0,0.0,95,0.00,,,0.01,,2013-05-09 12:22:00,
2013-05-09 08:32:00,59.0,58.0,30.04,South,174,0.0,0.0,95,0.00,,,0.01,,2013-05-09 12:32:00,
2013-05-09 08:42:00,59.0,58.0,30.04,SW,222,1.0,0.0,95,0.00,,,0.01,,2013-05-09 12:42:00,
2013-05-09 08:52:00,59.0,58.0,30.04,SW,222,1.0,0.0,95,0.00,,,0.01,,2013-05-09 12:52:00,
2013-05-09 09:01:00,61.0,60.0,30.05,West,277,0.0,0.0,95,0.00,,,0.01,,2013-05-09 13:01:00,
2013-05-09 09:12:00,61.0,60.0,30.05,SSW,213,0.0,0.0,95,0.00,,,0.01,,2013-05-09 13:12:00,
2013-05-09 09:22:00,61.0,60.0,30.05,SSW,213,0.0,0.0,95,0.00,,,0.01,,2013-05-09 13:22:00,
2013-05-09 09:32:00,62.0,61.0,30.05,West,260,0.0,0.0,95,0.00,,,0.01,,2013-05-09 13:32:00,
2013-05-09 09:42:00,62.0,61.0,30.05,WSW,250,0.0,0.0,95,0.00,,,0.01,,2013-05-09 13:42:00,
2013-05-09 09:52:00,62.0,61.0,30.05,WSW,250,0.0,0.0,95,0.00,,,0.01,,2013-05-09 13:52:00,
2013-05-09 10:02:00,65.0,63.0,30.05,West,274,0.0,0.0,93,0.00,,,0.01,,2013-05-09 14:02:00,
2013-05-09 10:11:00,66.0,63.0,30.05,West,263,0.0,5.0,90,0.00,,,0.01,,2013-05-09 14:11:00,
2013-05-09 10:22:00,66.0,63.0,30.05,West,263,0.0,5.0,90,0.00,,,0.01,,2013-05-09 14:22:00,
2013-05-09 10:32:00,67.0,62.0,30.06,West,281,1.0,0.0,85,0.00,,,0.01,,2013-05-09 14:32:00,
2013-05-09 10:42:00,68.0,62.0,30.06,West,265,0.0,3.0,82,0.00,,,0.01,,2013-05-09 14:42:00,
2013-05-09 10:52:00,68.0,62.0,30.06,West,265,0.0,3.0,82,0.00,,,0.01,,2013-05-09 14:52:00,
2013-05-09 11:01:00,70.0,62.0,30.06,SW,225,0.0,3.0,75,0.00,,,0.01,,2013-05-09 15:01:00,
2013-05-09 11:11:00,71.0,62.0,30.06,SW,226,0.0,0.0,72,0.00,,,0.01,,2013-05-09 15:11:00,
2013-05-09 11:22:00,71.0,62.0,30.06,SW,226,0.0,0.0,72,0.00,,,0.01,,2013-05-09 15:22:00,
2013-05-09 11:33:00,73.0,61.0,30.06,NW,313,0.0,3.0,65,0.00,,,0.01,,2013-05-09 15:33:00,
2013-05-09 11:43:00,73.0,57.0,30.06,North,0,0.0,0.0,58,0.00,,,0.01,,2013-05-09 15:43:00,
2013-05-09 11:53:00,73.0,57.0,30.06,North,0,0.0,0.0,58,0.00,,,0.01,,2013-05-09 15:53:00,
2013-05-09 12:03:00,74.0,53.0,30.06,NNE,12,2.0,6.0,48,0.00,,,0.01,,2013-05-09 16:03:00,
2013-05-09 12:12:00,75.0,52.0,30.06,North,5,1.0,6.0,44,0.00,,,0.01,,2013-05-09 16:12:00,
2013-05-09 12:23:00,75.0,52.0,30.06,North,5,1.0,6.0,44,0.00,,,0.01,,2013-05-09 16:23:00,
2013-05-09 12:33:00,76.0,50.0,30.06,North,354,2.0,7.0,40,0.00,,,0.01,,2013-05-09 16:33:00,
2013-05-09 12:42:00,76.0,48.0,30.06,NW,325,0.0,0.0,37,0.00,,,0.01,,2013-05-09 16:42:00,
2013-05-09 12:52:00,76.0,48.0,30.06,NW,325,0.0,0.0,37,0.00,,,0.01,,2013-05-09 16:52:00,
2013-05-09 13:02:00,77.0,48.0,30.06,North,350,2.0,8.0,36,0.00,,,0.01,,2013-05-09 17:02:00,
2013-05-09 13:12:00,77.0,48.0,30.06,North,350,2.0,8.0,36,0.00,,,0.01,,2013-05-09 17:12:00,
2013-05-09 13:21:00,77.0,47.0,30.06,NW,318,2.0,3.0,35,0.00,,,0.01,,2013-05-09 17:21:00,
2013-05-09 13:32:00,78.0,46.0,30.05,West,273,0.0,3.0,32,0.00,,,0.01,,2013-05-09 17:32:00,
2013-05-09 13:42:00,78.0,46.0,30.05,West,273,0.0,3.0,32,0.00,,,0.01,,2013-05-09 17:42:00,
2013-05-09 13:55:00,78.0,46.0,30.05,West,273,0.0,3.0,32,0.00,,,0.01,,2013-05-09 17:55:00,
2013-05-09 14:01:00,79.0,47.0,30.05,West,274,0.0,0.0,32,0.00,,,0.01,,2013-05-09 18:01:00,
2013-05-09 14:12:00,79.0,47.0,30.05,WNW,289,0.0,0.0,32,0.00,,,0.01,,2013-05-09 18:12:00,
2013-05-09 14:22:00,79.0,47.0,30.05,WNW,289,0.0,0.0,32,0.00,,,0.01,,2013-05-09 18:22:00,
2013-05-09 14:32:00,79.0,49.0,30.04,North,3,0.0,0.0,35,0.00,,,0.01,,2013-05-09 18:32:00,
2013-05-09 14:42:00,80.0,47.0,30.04,SW,231,2.0,6.0,31,0.00,,,0.01,,2013-05-09 18:42:00,
2013-05-09 14:52:00,80.0,47.0,30.04,SW,231,2.0,6.0,31,0.00,,,0.01,,2013-05-09 18:52:00,
2013-05-09 15:01:00,82.0,48.0,30.03,WSW,243,0.0,0.0,31,0.00,,,0.01,,2013-05-09 19:01:00,
2013-05-09 15:12:00,82.0,48.0,30.03,WSW,243,0.0,0.0,31,0.00,,,0.01,,2013-05-09 19:12:00,
2013-05-09 15:21:00,81.0,46.0,30.03,WSW,257,1.0,0.0,29,0.00,,,0.01,,2013-05-09 19:21:00,
2013-05-09 15:32:00,81.0,47.0,30.02,North,3,0.0,2.0,31,0.00,,,0.01,,2013-05-09 19:32:00,
2013-05-09 15:41:00,82.0,47.0,30.01,SSW,192,1.0,3.0,29,0.00,,,0.01,,2013-05-09 19:41:00,
2013-05-09 15:52:00,82.0,47.0,30.01,SSW,192,1.0,3.0,29,0.00,,,0.01,,2013-05-09 19:52:00,
2013-05-09 16:01:00,82.0,46.0,30.01,WSW,242,5.0,7.0,28,0.00,,,0.01,,2013-05-09 20:01:00,
2013-05-09 16:11:00,81.0,44.0,30.01,West,265,0.0,0.0,27,0.00,,,0.01,,2013-05-09 20:11:00,
2013-05-09 16:22:00,81.0,44.0,30.01,West,265,0.0,0.0,27,0.00,,,0.01,,2013-05-09 20:22:00,
2013-05-09 16:32:00,81.0,46.0,30.01,WSW,251,3.0,7.0,29,0.00,,,0.01,,2013-05-09 20:32:00,
2013-05-09 16:42:00,80.0,47.0,30.00,WSW,241,1.0,5.0,32,0.00,,,0.01,,2013-05-09 20:42:00,
2013-05-09 16:52:00,80.0,47.0,30.00,WSW,241,1.0,5.0,32,0.00,,,0.01,,2013-05-09 20:52:00,
2013-05-09 17:02:00,82.0,47.0,30.00,WSW,246,0.0,0.0,29,0.00,,,0.00,,2013-05-09 21:02:00,
2013-05-09 17:12:00,83.0,47.0,30.00,WSW,237,2.0,5.0,28,0.00,,,0.00,,2013-05-09 21:12:00,
2013-05-09 17:22:00,83.0,47.0,30.00,WSW,237,2.0,5.0,28,0.00,,,0.00,,2013-05-09 21:22:00,
2013-05-09 17:32:00,80.0,46.0,29.99,West,277,0.0,0.0,30,0.00,,,0.00,,2013-05-09 21:32:00,
2013-05-09 17:43:00,80.0,47.0,29.99,WSW,243,1.0,5.0,31,0.00,,,0.00,,2013-05-09 21:43:00,
2013-05-09 17:52:00,80.0,47.0,29.99,WSW,243,1.0,5.0,31,0.00,,,0.00,,2013-05-09 21:52:00,
2013-05-09 18:03:00,79.0,47.0,29.99,WSW,240,0.0,0.0,32,0.00,,,0.00,,2013-05-09 22:03:00,
2013-05-09 18:13:00,79.0,48.0,30.00,WSW,240,0.0,0.0,34,0.00,,,0.00,,2013-05-09 22:13:00,
2013-05-09 18:23:00,79.0,48.0,30.00,WSW,240,0.0,0.0,34,0.00,,,0.00,,2013-05-09 22:23:00,
2013-05-09 18:33:00,79.0,49.0,30.00,West,261,0.0,0.0,35,0.00,,,0.00,,2013-05-09 22:33:00,
2013-05-09 18:42:00,77.0,47.0,29.99,SW,224,1.0,0.0,35,0.00,,,0.00,,2013-05-09 22:42:00,
2013-05-09 18:52:00,77.0,47.0,29.99,SW,224,1.0,0.0,35,0.00,,,0.00,,2013-05-09 22:52:00,
2013-05-09 19:02:00,77.0,49.0,29.99,SSW,205,0.0,0.0,37,0.00,,,0.00,,2013-05-09 23:02:00,
2013-05-09 19:12:00,76.0,49.0,29.99,WNW,288,2.0,6.0,38,0.00,,,0.00,,2013-05-09 23:12:00,
2013-05-09 19:22:00,76.0,49.0,29.99,WNW,288,2.0,6.0,38,0.00,,,0.00,,2013-05-09 23:22:00,
2013-05-09 19:32:00,74.0,50.0,29.99,North,1,0.0,0.0,43,0.00,,,0.00,,2013-05-09 23:32:00,
2013-05-09 19:42:00,74.0,51.0,29.98,North,1,0.0,0.0,44,0.00,,,0.00,,2013-05-09 23:42:00,
2013-05-09 19:52:00,74.0,51.0,29.98,North,1,0.0,0.0,44,0.00,,,0.00,,2013-05-09 23:52:00,
2013-05-09 20:01:00,72.0,51.0,29.98,NNW,347,0.0,0.0,47,0.00,,,0.00,,2013-05-10 00:01:00,
2013-05-09 20:11:00,72.0,52.0,29.98,North,3,0.0,0.0,49,0.00,,,0.00,,2013-05-10 00:11:00,
2013-05-09 20:22:00,72.0,52.0,29.98,North,3,0.0,0.0,49,0.00,,,0.00,,2013-05-10 00:22:00,
2013-05-09 20:32:00,71.0,52.0,30.00,North,3,0.0,0.0,52,0.00,,,0.00,,2013-05-10 00:32:00,
2013-05-09 20:42:00,71.0,53.0,29.99,North,3,0.0,0.0,53,0.00,,,0.00,,2013-05-10 00:42:00,
2013-05-09 20:52:00,71.0,53.0,29.99,North,3,0.0,0.0,53,0.00,,,0.00,,2013-05-10 00:52:00,
2013-05-09 21:01:00,70.0,53.0,30.00,North,3,0.0,0.0,54,0.00,,,0.00,,2013-05-10 01:01:00,
2013-05-09 21:11:00,70.0,53.0,30.00,North,3,0.0,0.0,55,0.00,,,0.00,,2013-05-10 01:11:00,
2013-05-09 21:21:00,70.0,53.0,30.00,North,3,0.0,0.0,55,0.00,,,0.00,,2013-05-10 01:21:00,
2013-05-09 21:32:00,68.0,54.0,30.01,North,3,0.0,0.0,60,0.00,,,0.00,,2013-05-10 01:32:00,
2013-05-09 21:42:00,68.0,54.0,30.00,North,3,0.0,0.0,61,0.00,,,0.00,,2013-05-10 01:42:00,
2013-05-09 21:52:00,68.0,54.0,30.00,North,3,0.0,0.0,61,0.00,,,0.00,,2013-05-10 01:52:00,
2013-05-09 22:02:00,68.0,54.0,29.99,ENE,69,0.0,6.0,62,0.00,,,0.00,,2013-05-10 02:02:00,
2013-05-09 22:11:00,68.0,55.0,29.99,NE,44,0.0,0.0,63,0.00,,,0.00,,2013-05-10 02:11:00,
2013-05-09 22:21:00,68.0,55.0,29.99,NE,44,0.0,0.0,63,0.00,,,0.00,,2013-05-10 02:21:00,
2013-05-09 22:32:00,67.0,54.0,29.99,NE,44,0.0,0.0,63,0.00,,,0.00,,2013-05-10 02:32:00,
2013-05-09 22:42:00,67.0,55.0,29.99,NE,44,0.0,0.0,65,0.00,,,0.00,,2013-05-10 02:42:00,
2013-05-09 22:52:00,67.0,55.0,29.99,NE,44,0.0,0.0,65,0.00,,,0.00,,2013-05-10 02:52:00,
2013-05-09 23:01:00,67.0,55.0,29.98,NE,44,0.0,0.0,65,0.00,,,0.00,,2013-05-10 03:01:00,
2013-05-09 23:11:00,67.0,55.0,29.98,NE,44,0.0,0.0,66,0.00,,,0.00,,2013-05-10 03:11:00,
2013-05-09 23:22:00,67.0,55.0,29.98,NE,44,0.0,0.0,66,0.00,,,0.00,,2013-05-10 03:22:00,
2013-05-09 23:33:00,66.0,54.0,29.98,WSW,239,1.0,3.0,66,0.00,,,0.00,,2013-05-10 03:33:00,
2013-05-09 23:43:00,66.0,54.0,29.98,SSW,196,1.0,0.0,66,0.00,,,0.00,,2013-05-10 03:43:00,
2013-05-09 23:53:00,66.0,54.0,29.98,SSW,196,1.0,0.0,66,0.00,,,0.00,,2013-05-10 03:53:00,